Year,Month,Day,Hour,Minute,Value (Times are PST for windspeed in km/hr)
2007,01,04,00,00,10.50
2007,01,04,00,01,10.60
2007,01,04,00,02,16.30
2007,01,04,00,03,17.20
2007,01,04,00,04,11.50
2007,01,04,00,05,15.00
2007,01,04,00,06,13.60
2007,01,04,00,07,14.70
2007,01,04,00,08,8.20
2007,01,04,00,09,11.30
2007,01,04,00,10,13.20
2007,01,04,00,11,7.60
2007,01,04,00,12,11.10
2007,01,04,00,13,12.60
2007,01,04,00,14,11.10
2007,01,04,00,15,9.40
2007,01,04,00,16,9.90
2007,01,04,00,17,7.60
2007,01,04,00,18,10.20
2007,01,04,00,19,14.30
2007,01,04,00,20,15.50
2007,01,04,00,21,10.20
2007,01,04,00,22,6.10
2007,01,04,00,23,7.60
2007,01,04,00,24,7.70
2007,01,04,00,25,6.90
2007,01,04,00,26,4.60
2007,01,04,00,27,4.80
2007,01,04,00,28,4.80
2007,01,04,00,29,5.20
2007,01,04,00,30,8.70
2007,01,04,00,31,11.30
2007,01,04,00,32,8.00
2007,01,04,00,33,7.70
2007,01,04,00,34,8.30
2007,01,04,00,35,7.50
2007,01,04,00,36,8.10
2007,01,04,00,37,8.40
2007,01,04,00,38,7.80
2007,01,04,00,39,6.20
2007,01,04,00,40,7.20
2007,01,04,00,41,7.90
2007,01,04,00,42,4.70
2007,01,04,00,43,6.30
2007,01,04,00,44,3.40
2007,01,04,00,45,6.10
2007,01,04,00,46,3.10
2007,01,04,00,47,5.30
2007,01,04,00,48,4.40
2007,01,04,00,49,5.70
2007,01,04,00,50,5.90
2007,01,04,00,51,4.90
2007,01,04,00,52,5.80
2007,01,04,00,53,4.70
2007,01,04,00,54,5.60
2007,01,04,00,55,6.40
2007,01,04,00,56,6.70
2007,01,04,00,57,4.60
2007,01,04,00,58,3.80
2007,01,04,00,59,4.80
2007,01,04,01,00,4.80
2007,01,04,01,01,4.00
2007,01,04,01,02,4.20
2007,01,04,01,03,5.70
2007,01,04,01,04,5.00
2007,01,04,01,05,6.60
2007,01,04,01,06,7.30
2007,01,04,01,07,5.60
2007,01,04,01,08,4.20
2007,01,04,01,09,6.00
2007,01,04,01,10,3.10
2007,01,04,01,11,4.70
2007,01,04,01,12,5.40
2007,01,04,01,13,5.40
2007,01,04,01,14,5.00
2007,01,04,01,15,5.50
2007,01,04,01,16,6.20
2007,01,04,01,17,6.30
2007,01,04,01,18,6.90
2007,01,04,01,19,7.90
2007,01,04,01,20,4.50
2007,01,04,01,21,3.80
2007,01,04,01,22,3.70
2007,01,04,01,23,7.60
2007,01,04,01,24,8.00
2007,01,04,01,25,4.40
2007,01,04,01,26,7.60
2007,01,04,01,27,11.40
2007,01,04,01,28,7.20
2007,01,04,01,29,6.40
2007,01,04,01,30,5.20
2007,01,04,01,31,6.20
2007,01,04,01,32,11.30
2007,01,04,01,33,11.50
2007,01,04,01,34,6.20
2007,01,04,01,35,9.50
2007,01,04,01,36,11.30
2007,01,04,01,37,10.70
2007,01,04,01,38,10.70
2007,01,04,01,39,7.60
2007,01,04,01,40,6.40
2007,01,04,01,41,8.10
2007,01,04,01,42,6.50
2007,01,04,01,43,6.40
2007,01,04,01,44,6.40
2007,01,04,01,45,6.40
2007,01,04,01,46,6.40
2007,01,04,01,47,6.70
2007,01,04,01,48,11.80
2007,01,04,01,49,10.40
2007,01,04,01,50,11.10
2007,01,04,01,51,12.90
2007,01,04,01,52,10.40
2007,01,04,01,53,4.60
2007,01,04,01,54,5.50
2007,01,04,01,55,10.10
2007,01,04,01,56,8.90
2007,01,04,01,57,9.20
2007,01,04,01,58,10.90
2007,01,04,01,59,10.90
2007,01,04,02,00,9.10
2007,01,04,02,01,13.20
2007,01,04,02,02,12.50
2007,01,04,02,03,13.40
2007,01,04,02,04,12.20
2007,01,04,02,05,17.70
2007,01,04,02,06,19.00
2007,01,04,02,07,17.50
2007,01,04,02,08,21.80
2007,01,04,02,09,20.30
2007,01,04,02,10,18.90
2007,01,04,02,11,14.30
2007,01,04,02,12,11.30
2007,01,04,02,13,15.50
2007,01,04,02,14,9.30
2007,01,04,02,15,15.60
2007,01,04,02,16,16.80
2007,01,04,02,17,10.90
2007,01,04,02,18,11.60
2007,01,04,02,19,11.20
2007,01,04,02,20,9.10
2007,01,04,02,21,8.80
2007,01,04,02,22,8.80
2007,01,04,02,23,10.60
2007,01,04,02,24,9.80
2007,01,04,02,25,9.50
2007,01,04,02,26,6.30
2007,01,04,02,27,8.30
2007,01,04,02,28,3.90
2007,01,04,02,29,5.10
2007,01,04,02,30,7.00
2007,01,04,02,31,5.60
2007,01,04,02,32,3.70
2007,01,04,02,33,4.50
2007,01,04,02,34,3.20
2007,01,04,02,35,4.30
2007,01,04,02,36,4.20
2007,01,04,02,37,4.30
2007,01,04,02,38,3.70
2007,01,04,02,39,3.30
2007,01,04,02,40,2.50
2007,01,04,02,41,1.80
2007,01,04,02,42,0.20
2007,01,04,02,43,0.10
2007,01,04,02,44,0.20
2007,01,04,02,45,0.50
2007,01,04,02,46,0.20
2007,01,04,02,47,0.40
2007,01,04,02,48,0.40
2007,01,04,02,49,1.30
2007,01,04,02,50,2.10
2007,01,04,02,51,2.80
2007,01,04,02,52,2.40
2007,01,04,02,53,2.70
2007,01,04,02,54,2.00
2007,01,04,02,55,2.20
2007,01,04,02,56,3.10
2007,01,04,02,57,2.70
2007,01,04,02,58,2.40
2007,01,04,02,59,2.80
2007,01,04,03,00,0.90
2007,01,04,03,01,4.00
2007,01,04,03,02,4.80
2007,01,04,03,03,3.80
2007,01,04,03,04,2.50
2007,01,04,03,05,3.30
2007,01,04,03,06,1.90
2007,01,04,03,07,2.80
2007,01,04,03,08,3.50
2007,01,04,03,09,3.90
2007,01,04,03,10,3.10
2007,01,04,03,11,4.80
2007,01,04,03,12,1.50
2007,01,04,03,13,2.60
2007,01,04,03,14,2.10
2007,01,04,03,15,0.10
2007,01,04,03,16,1.20
2007,01,04,03,17,1.20
2007,01,04,03,18,1.80
2007,01,04,03,19,3.00
2007,01,04,03,20,0.90
2007,01,04,03,21,0.10
2007,01,04,03,22,0.00
2007,01,04,03,23,0.20
2007,01,04,03,24,0.00
2007,01,04,03,25,0.00
2007,01,04,03,26,0.10
2007,01,04,03,27,0.00
2007,01,04,03,28,0.00
2007,01,04,03,29,0.00
2007,01,04,03,30,0.10
2007,01,04,03,31,0.00
2007,01,04,03,32,0.00
2007,01,04,03,33,0.00
2007,01,04,03,34,0.00
2007,01,04,03,35,0.00
2007,01,04,03,36,0.00
2007,01,04,03,37,0.00
2007,01,04,03,38,0.00
2007,01,04,03,39,0.00
2007,01,04,03,40,0.00
2007,01,04,03,41,0.00
2007,01,04,03,42,0.00
2007,01,04,03,43,0.00
2007,01,04,03,44,0.00
2007,01,04,03,45,0.00
2007,01,04,03,46,0.00
2007,01,04,03,47,0.10
2007,01,04,03,48,0.00
2007,01,04,03,49,0.00
2007,01,04,03,50,0.00
2007,01,04,03,51,0.00
2007,01,04,03,52,0.00
2007,01,04,03,53,0.00
2007,01,04,03,54,0.00
2007,01,04,03,55,0.00
2007,01,04,03,56,0.00
2007,01,04,03,57,0.00
2007,01,04,03,58,0.30
2007,01,04,03,59,1.50
2007,01,04,04,00,0.10
2007,01,04,04,01,0.50
2007,01,04,04,02,0.60
2007,01,04,04,03,2.00
2007,01,04,04,04,3.40
2007,01,04,04,05,5.80
2007,01,04,04,06,5.70
2007,01,04,04,07,3.90
2007,01,04,04,08,2.30
2007,01,04,04,09,1.00
2007,01,04,04,10,3.20
2007,01,04,04,11,2.00
2007,01,04,04,12,3.00
2007,01,04,04,13,3.40
2007,01,04,04,14,3.70
2007,01,04,04,15,3.60
2007,01,04,04,16,5.10
2007,01,04,04,17,2.50
2007,01,04,04,18,0.20
2007,01,04,04,19,0.50
2007,01,04,04,20,0.70
2007,01,04,04,21,1.90
2007,01,04,04,22,3.00
2007,01,04,04,23,3.00
2007,01,04,04,24,3.30
2007,01,04,04,25,2.40
2007,01,04,04,26,2.90
2007,01,04,04,27,1.80
2007,01,04,04,28,2.70
2007,01,04,04,29,2.20
2007,01,04,04,30,1.80
2007,01,04,04,31,2.30
2007,01,04,04,32,2.20
2007,01,04,04,33,1.00
2007,01,04,04,34,0.30
2007,01,04,04,35,2.50
2007,01,04,04,36,3.10
2007,01,04,04,37,3.50
2007,01,04,04,38,4.00
2007,01,04,04,39,4.40
2007,01,04,04,40,4.70
2007,01,04,04,41,3.50
2007,01,04,04,42,2.30
2007,01,04,04,43,2.60
2007,01,04,04,44,4.90
2007,01,04,04,45,6.00
2007,01,04,04,46,3.60
2007,01,04,04,47,4.10
2007,01,04,04,48,4.80
2007,01,04,04,49,7.20
2007,01,04,04,50,7.10
2007,01,04,04,51,7.00
2007,01,04,04,52,7.30
2007,01,04,04,53,8.00
2007,01,04,04,54,10.30
2007,01,04,04,55,8.10
2007,01,04,04,56,7.70
2007,01,04,04,57,8.20
2007,01,04,04,58,10.00
2007,01,04,04,59,7.60
2007,01,04,05,00,11.50
2007,01,04,05,01,12.20
2007,01,04,05,02,12.20
2007,01,04,05,03,13.50
2007,01,04,05,04,13.30
2007,01,04,05,05,11.60
2007,01,04,05,06,14.70
2007,01,04,05,07,10.10
2007,01,04,05,08,10.20
2007,01,04,05,09,10.50
2007,01,04,05,10,10.30
2007,01,04,05,11,7.90
2007,01,04,05,12,8.30
2007,01,04,05,13,4.60
2007,01,04,05,14,6.60
2007,01,04,05,15,6.60
2007,01,04,05,16,6.90
2007,01,04,05,17,8.00
2007,01,04,05,18,2.50
2007,01,04,05,19,2.10
2007,01,04,05,20,3.30
2007,01,04,05,21,3.90
2007,01,04,05,22,4.50
2007,01,04,05,23,4.20
2007,01,04,05,24,5.90
2007,01,04,05,25,4.40
2007,01,04,05,26,4.50
2007,01,04,05,27,4.20
2007,01,04,05,28,3.60
2007,01,04,05,29,3.40
2007,01,04,05,30,2.60
2007,01,04,05,31,4.00
2007,01,04,05,32,6.20
2007,01,04,05,33,5.00
2007,01,04,05,34,4.20
2007,01,04,05,35,2.40
2007,01,04,05,36,2.00
2007,01,04,05,37,2.20
2007,01,04,05,38,3.10
2007,01,04,05,39,0.60
2007,01,04,05,40,1.90
2007,01,04,05,41,0.80
2007,01,04,05,42,2.00
2007,01,04,05,43,1.10
2007,01,04,05,44,1.50
2007,01,04,05,45,0.80
2007,01,04,05,46,0.40
2007,01,04,05,47,2.50
2007,01,04,05,48,0.40
2007,01,04,05,49,0.00
2007,01,04,05,50,0.00
2007,01,04,05,51,0.00
2007,01,04,05,52,2.40
2007,01,04,05,53,3.30
2007,01,04,05,54,3.60
2007,01,04,05,55,3.50
2007,01,04,05,56,1.70
2007,01,04,05,57,1.10
2007,01,04,05,58,0.80
2007,01,04,05,59,0.90
2007,01,04,06,00,1.20
2007,01,04,06,01,1.30
2007,01,04,06,02,2.70
2007,01,04,06,03,2.80
2007,01,04,06,04,3.30
2007,01,04,06,05,4.80
2007,01,04,06,06,2.80
2007,01,04,06,07,1.90
2007,01,04,06,08,0.10
2007,01,04,06,09,1.50
2007,01,04,06,10,0.00
2007,01,04,06,11,0.10
2007,01,04,06,12,1.20
2007,01,04,06,13,2.00
2007,01,04,06,14,3.70
2007,01,04,06,15,10.70
2007,01,04,06,16,5.70
2007,01,04,06,17,7.00
2007,01,04,06,18,6.70
2007,01,04,06,19,4.30
2007,01,04,06,20,1.10
2007,01,04,06,21,0.20
2007,01,04,06,22,0.90
2007,01,04,06,23,1.00
2007,01,04,06,24,5.70
2007,01,04,06,25,2.20
2007,01,04,06,26,3.30
2007,01,04,06,27,4.10
2007,01,04,06,28,3.10
2007,01,04,06,29,3.20
2007,01,04,06,30,5.80
2007,01,04,06,31,7.80
2007,01,04,06,32,6.40
2007,01,04,06,33,3.90
2007,01,04,06,34,6.10
2007,01,04,06,35,6.20
2007,01,04,06,36,8.40
2007,01,04,06,37,8.10
2007,01,04,06,38,8.70
2007,01,04,06,39,11.70
2007,01,04,06,40,12.10
2007,01,04,06,41,10.40
2007,01,04,06,42,10.40
2007,01,04,06,43,10.10
2007,01,04,06,44,9.00
2007,01,04,06,45,11.00
2007,01,04,06,46,13.20
2007,01,04,06,47,13.90
2007,01,04,06,48,8.00
2007,01,04,06,49,11.90
2007,01,04,06,50,11.70
2007,01,04,06,51,11.80
2007,01,04,06,52,20.40
2007,01,04,06,53,15.90
2007,01,04,06,54,13.80
2007,01,04,06,55,19.60
2007,01,04,06,56,17.30
2007,01,04,06,57,13.10
2007,01,04,06,58,8.30
2007,01,04,06,59,10.20
2007,01,04,07,00,13.50
2007,01,04,07,01,15.70
2007,01,04,07,02,14.10
2007,01,04,07,03,13.50
2007,01,04,07,04,14.00
2007,01,04,07,05,8.30
2007,01,04,07,06,10.80
2007,01,04,07,07,10.10
2007,01,04,07,08,12.90
2007,01,04,07,09,13.20
2007,01,04,07,10,9.90
2007,01,04,07,11,7.00
2007,01,04,07,12,9.90
2007,01,04,07,13,10.10
2007,01,04,07,14,13.90
2007,01,04,07,15,15.20
2007,01,04,07,16,13.20
2007,01,04,07,17,14.60
2007,01,04,07,18,14.60
2007,01,04,07,19,12.40
2007,01,04,07,20,16.00
2007,01,04,07,21,16.10
2007,01,04,07,22,16.10
2007,01,04,07,23,14.20
2007,01,04,07,24,17.20
2007,01,04,07,25,13.30
2007,01,04,07,26,15.40
2007,01,04,07,27,15.90
2007,01,04,07,28,8.20
2007,01,04,07,29,13.70
2007,01,04,07,30,13.20
2007,01,04,07,31,9.80
2007,01,04,07,32,9.60
2007,01,04,07,33,13.80
2007,01,04,07,34,12.90
2007,01,04,07,35,10.80
2007,01,04,07,36,10.30
2007,01,04,07,37,8.90
2007,01,04,07,38,14.70
2007,01,04,07,39,13.90
2007,01,04,07,40,14.40
2007,01,04,07,41,21.40
2007,01,04,07,42,19.20
2007,01,04,07,43,18.60
2007,01,04,07,44,22.50
2007,01,04,07,45,16.70
2007,01,04,07,46,18.50
2007,01,04,07,47,19.70
2007,01,04,07,48,17.90
2007,01,04,07,49,17.20
2007,01,04,07,50,20.30
2007,01,04,07,51,18.90
2007,01,04,07,52,22.40
2007,01,04,07,53,25.70
2007,01,04,07,54,24.70
2007,01,04,07,55,16.30
2007,01,04,07,56,19.40
2007,01,04,07,57,17.30
2007,01,04,07,58,17.80
2007,01,04,07,59,18.30
2007,01,04,08,00,14.30
2007,01,04,08,01,22.00
2007,01,04,08,02,17.90
2007,01,04,08,03,22.80
2007,01,04,08,04,20.00
2007,01,04,08,05,22.70
2007,01,04,08,06,22.30
2007,01,04,08,07,16.00
2007,01,04,08,08,17.60
2007,01,04,08,09,17.30
2007,01,04,08,10,15.20
2007,01,04,08,11,18.80
2007,01,04,08,12,21.90
2007,01,04,08,13,17.70
2007,01,04,08,14,18.50
2007,01,04,08,15,17.50
2007,01,04,08,16,20.90
2007,01,04,08,17,21.00
2007,01,04,08,18,20.40
2007,01,04,08,19,16.70
2007,01,04,08,20,19.00
2007,01,04,08,21,22.00
2007,01,04,08,22,25.80
2007,01,04,08,23,19.80
2007,01,04,08,24,21.90
2007,01,04,08,25,23.30
2007,01,04,08,26,17.10
2007,01,04,08,27,14.50
2007,01,04,08,28,19.80
2007,01,04,08,29,17.80
2007,01,04,08,30,22.40
2007,01,04,08,31,22.00
2007,01,04,08,32,20.40
2007,01,04,08,33,18.70
2007,01,04,08,34,21.50
2007,01,04,08,35,21.90
2007,01,04,08,36,21.10
2007,01,04,08,37,18.40
2007,01,04,08,38,16.50
2007,01,04,08,39,20.50
2007,01,04,08,40,20.20
2007,01,04,08,41,22.70
2007,01,04,08,42,18.90
2007,01,04,08,43,14.30
2007,01,04,08,44,17.70
2007,01,04,08,45,21.10
2007,01,04,08,46,21.00
2007,01,04,08,47,19.70
2007,01,04,08,48,19.20
2007,01,04,08,49,16.20
2007,01,04,08,50,22.80
2007,01,04,08,51,17.40
2007,01,04,08,52,17.10
2007,01,04,08,53,18.30
2007,01,04,08,54,18.70
2007,01,04,08,55,18.70
2007,01,04,08,56,16.80
2007,01,04,08,57,22.20
2007,01,04,08,58,22.50
2007,01,04,08,59,22.50
2007,01,04,09,00,16.80
2007,01,04,09,01,14.50
2007,01,04,09,02,14.40
2007,01,04,09,03,14.60
2007,01,04,09,04,12.10
2007,01,04,09,05,13.70
2007,01,04,09,06,17.60
2007,01,04,09,07,17.40
2007,01,04,09,08,18.00
2007,01,04,09,09,19.40
2007,01,04,09,10,18.40
2007,01,04,09,11,20.20
2007,01,04,09,12,11.10
2007,01,04,09,13,10.50
2007,01,04,09,14,22.70
2007,01,04,09,15,13.10
2007,01,04,09,16,17.60
2007,01,04,09,17,18.10
2007,01,04,09,18,18.10
2007,01,04,09,19,14.90
2007,01,04,09,20,17.00
2007,01,04,09,21,23.60
2007,01,04,09,22,22.80
2007,01,04,09,23,14.30
2007,01,04,09,24,9.20
2007,01,04,09,25,22.80
2007,01,04,09,26,21.30
2007,01,04,09,27,25.50
2007,01,04,09,28,15.00
2007,01,04,09,29,17.20
2007,01,04,09,30,20.80
2007,01,04,09,31,17.10
2007,01,04,09,32,13.20
2007,01,04,09,33,11.30
2007,01,04,09,34,13.70
2007,01,04,09,35,15.70
2007,01,04,09,36,17.00
2007,01,04,09,37,11.10
2007,01,04,09,38,10.60
2007,01,04,09,39,11.80
2007,01,04,09,40,16.00
2007,01,04,09,41,10.80
2007,01,04,09,42,13.00
2007,01,04,09,43,12.30
2007,01,04,09,44,12.10
2007,01,04,09,45,6.70
2007,01,04,09,46,9.70
2007,01,04,09,47,11.70
2007,01,04,09,48,10.10
2007,01,04,09,49,11.00
2007,01,04,09,50,10.60
2007,01,04,09,51,9.00
2007,01,04,09,52,7.10
2007,01,04,09,53,9.30
2007,01,04,09,54,10.60
2007,01,04,09,55,9.60
2007,01,04,09,56,9.60
2007,01,04,09,57,9.60
2007,01,04,09,58,9.60
2007,01,04,09,59,10.80
2007,01,04,10,00,8.30
2007,01,04,10,01,10.60
2007,01,04,10,02,10.40
2007,01,04,10,03,9.20
2007,01,04,10,04,9.30
2007,01,04,10,05,8.10
2007,01,04,10,06,5.90
2007,01,04,10,07,12.90
2007,01,04,10,08,9.20
2007,01,04,10,09,10.10
2007,01,04,10,10,9.60
2007,01,04,10,11,9.60
2007,01,04,10,12,9.60
2007,01,04,10,13,9.60
2007,01,04,10,14,9.60
2007,01,04,10,15,9.60
2007,01,04,10,16,9.60
2007,01,04,10,17,9.60
2007,01,04,10,18,9.60
2007,01,04,10,19,9.60
2007,01,04,10,20,9.60
2007,01,04,10,35,2.60
2007,01,04,10,36,1.60
2007,01,04,10,37,3.10
2007,01,04,10,38,2.30
2007,01,04,10,39,0.10
2007,01,04,10,40,0.00
2007,01,04,10,41,0.00
2007,01,04,10,42,0.70
2007,01,04,10,43,3.90
2007,01,04,10,44,1.50
2007,01,04,10,45,3.80
2007,01,04,10,46,3.80
2007,01,04,10,47,4.00
2007,01,04,10,48,4.40
2007,01,04,10,49,3.60
2007,01,04,10,50,5.20
2007,01,04,10,51,4.00
2007,01,04,10,52,3.80
2007,01,04,10,53,5.00
2007,01,04,10,54,5.80
2007,01,04,10,55,8.10
2007,01,04,10,56,4.80
2007,01,04,10,57,5.50
2007,01,04,10,58,5.90
2007,01,04,10,59,5.10
2007,01,04,11,00,7.60
2007,01,04,11,01,7.90
2007,01,04,11,02,6.70
2007,01,04,11,03,9.70
2007,01,04,11,04,11.30
2007,01,04,11,05,12.50
2007,01,04,11,06,8.20
2007,01,04,11,07,8.80
2007,01,04,11,08,12.90
2007,01,04,11,09,14.00
2007,01,04,11,10,9.10
2007,01,04,11,11,7.00
2007,01,04,11,12,4.30
2007,01,04,11,13,4.40
2007,01,04,11,14,1.60
2007,01,04,11,15,3.90
2007,01,04,11,16,3.60
2007,01,04,11,17,5.60
2007,01,04,11,18,8.30
2007,01,04,11,19,8.50
2007,01,04,11,20,8.10
2007,01,04,11,21,8.10
2007,01,04,11,22,5.10
2007,01,04,11,23,0.40
2007,01,04,11,24,0.70
2007,01,04,11,25,1.50
2007,01,04,11,26,1.10
2007,01,04,11,27,1.00
2007,01,04,11,28,1.00
2007,01,04,11,29,2.50
2007,01,04,11,30,3.00
2007,01,04,11,31,3.00
2007,01,04,11,32,0.60
2007,01,04,11,33,1.50
2007,01,04,11,34,1.30
2007,01,04,11,35,1.80
2007,01,04,11,36,2.70
2007,01,04,11,37,1.60
2007,01,04,11,38,1.30
2007,01,04,11,39,0.00
2007,01,04,11,40,1.50
2007,01,04,11,41,2.20
2007,01,04,11,42,1.00
2007,01,04,11,43,3.30
2007,01,04,11,44,1.10
2007,01,04,11,45,1.60
2007,01,04,11,46,1.60
2007,01,04,11,47,1.60
2007,01,04,11,48,2.20
2007,01,04,11,49,4.30
2007,01,04,11,50,5.50
2007,01,04,11,51,5.00
2007,01,04,11,52,2.40
2007,01,04,11,53,2.00
2007,01,04,11,54,3.20
2007,01,04,11,55,5.70
2007,01,04,11,56,5.30
2007,01,04,11,57,3.60
2007,01,04,11,58,6.50
2007,01,04,11,59,5.40
2007,01,04,12,00,5.40
2007,01,04,12,01,4.20
2007,01,04,12,02,2.40
2007,01,04,12,03,5.70
2007,01,04,12,04,5.60
2007,01,04,12,05,3.50
2007,01,04,12,06,3.60
2007,01,04,12,07,5.10
2007,01,04,12,08,5.20
2007,01,04,12,09,5.20
2007,01,04,12,10,5.60
2007,01,04,12,11,5.50
2007,01,04,12,12,6.90
2007,01,04,12,13,6.20
2007,01,04,12,14,3.10
2007,01,04,12,15,4.90
2007,01,04,12,16,2.50
2007,01,04,12,17,5.60
2007,01,04,12,18,4.80
2007,01,04,12,19,4.00
2007,01,04,12,20,4.80
2007,01,04,12,21,4.50
2007,01,04,12,22,6.20
2007,01,04,12,23,4.80
2007,01,04,12,24,4.20
2007,01,04,12,25,5.90
2007,01,04,12,26,5.70
2007,01,04,12,27,4.80
2007,01,04,12,28,4.20
2007,01,04,12,29,5.30
2007,01,04,12,30,4.60
2007,01,04,12,31,3.80
2007,01,04,12,32,4.90
2007,01,04,12,33,4.30
2007,01,04,12,34,4.10
2007,01,04,12,35,4.10
2007,01,04,12,36,4.50
2007,01,04,12,37,4.80
2007,01,04,12,38,5.40
2007,01,04,12,39,4.50
2007,01,04,12,40,4.60
2007,01,04,12,41,5.10
2007,01,04,12,42,4.30
2007,01,04,12,43,3.00
2007,01,04,12,44,2.90
2007,01,04,12,45,2.90
2007,01,04,12,46,3.40
2007,01,04,12,47,4.40
2007,01,04,12,48,3.20
2007,01,04,12,49,3.00
2007,01,04,12,50,2.70
2007,01,04,12,51,4.10
2007,01,04,12,52,3.60
2007,01,04,12,53,4.80
2007,01,04,12,54,5.00
2007,01,04,12,55,4.40
2007,01,04,12,56,4.70
2007,01,04,12,57,3.00
2007,01,04,12,58,2.90
2007,01,04,12,59,5.00
2007,01,04,13,00,6.70
2007,01,04,13,01,4.00
2007,01,04,13,02,6.30
2007,01,04,13,03,5.90
2007,01,04,13,04,5.70
2007,01,04,13,05,4.20
2007,01,04,13,06,4.50
2007,01,04,13,07,3.50
2007,01,04,13,08,5.70
2007,01,04,13,09,10.50
2007,01,04,13,10,11.80
2007,01,04,13,11,10.70
2007,01,04,13,12,8.80
2007,01,04,13,13,6.00
2007,01,04,13,14,8.40
2007,01,04,13,15,9.40
2007,01,04,13,16,8.10
2007,01,04,13,17,10.10
2007,01,04,13,18,8.80
2007,01,04,13,19,11.40
2007,01,04,13,20,13.90
2007,01,04,13,21,10.40
2007,01,04,13,22,15.20
2007,01,04,13,23,10.50
2007,01,04,13,24,7.90
2007,01,04,13,25,12.10
2007,01,04,13,26,12.00
2007,01,04,13,27,8.60
2007,01,04,13,28,10.10
2007,01,04,13,29,11.10
2007,01,04,13,30,11.70
2007,01,04,13,31,8.00
2007,01,04,13,32,9.50
2007,01,04,13,33,12.50
2007,01,04,13,34,10.70
2007,01,04,13,35,14.30
2007,01,04,13,36,9.40
2007,01,04,13,37,8.80
2007,01,04,13,38,16.00
2007,01,04,13,39,17.40
2007,01,04,13,40,15.60
2007,01,04,13,41,13.10
2007,01,04,13,42,9.30
2007,01,04,13,43,17.60
2007,01,04,13,44,15.70
2007,01,04,13,45,16.00
2007,01,04,13,46,15.10
2007,01,04,13,47,12.30
2007,01,04,13,48,9.10
2007,01,04,13,49,16.10
2007,01,04,13,50,19.00
2007,01,04,13,51,18.10
2007,01,04,13,52,7.60
2007,01,04,13,53,10.70
2007,01,04,13,54,9.50
2007,01,04,13,55,9.60
2007,01,04,13,56,15.70
2007,01,04,13,57,16.80
2007,01,04,13,58,12.60
2007,01,04,13,59,10.60
2007,01,04,14,00,7.20
2007,01,04,14,01,13.50
2007,01,04,14,02,19.30
2007,01,04,14,03,16.60
2007,01,04,14,04,16.80
2007,01,04,14,05,15.90
2007,01,04,14,06,19.40
2007,01,04,14,07,17.50
2007,01,04,14,08,17.50
2007,01,04,14,09,11.80
2007,01,04,14,10,14.90
2007,01,04,14,11,17.60
2007,01,04,14,12,17.10
2007,01,04,14,13,12.00
2007,01,04,14,14,15.50
2007,01,04,14,15,15.70
2007,01,04,14,16,14.80
2007,01,04,14,17,11.80
2007,01,04,14,18,18.50
2007,01,04,14,19,13.70
2007,01,04,14,20,14.90
2007,01,04,14,21,16.60
2007,01,04,14,22,19.00
2007,01,04,14,23,19.00
2007,01,04,14,24,21.30
2007,01,04,14,25,20.70
2007,01,04,14,26,21.50
2007,01,04,14,27,21.10
2007,01,04,14,28,19.00
2007,01,04,14,29,16.10
2007,01,04,14,30,12.10
2007,01,04,14,31,15.30
2007,01,04,14,32,20.80
2007,01,04,14,33,19.00
2007,01,04,14,34,16.00
2007,01,04,14,35,17.80
2007,01,04,14,36,15.30
2007,01,04,14,37,14.40
2007,01,04,14,38,14.00
2007,01,04,14,39,17.70
2007,01,04,14,40,17.70
2007,01,04,14,41,14.20
2007,01,04,14,42,15.60
2007,01,04,14,43,15.30
2007,01,04,14,44,11.30
2007,01,04,14,45,17.20
2007,01,04,14,46,15.40
2007,01,04,14,47,15.80
2007,01,04,14,48,17.40
2007,01,04,14,49,15.80
2007,01,04,14,50,10.30
2007,01,04,14,51,12.30
2007,01,04,14,52,9.90
2007,01,04,14,53,10.10
2007,01,04,14,54,9.40
2007,01,04,14,55,8.00
2007,01,04,14,56,14.10
2007,01,04,14,57,10.20
2007,01,04,14,58,7.40
2007,01,04,14,59,11.30
2007,01,04,15,00,11.60
2007,01,04,15,01,7.20
2007,01,04,15,02,10.20
2007,01,04,15,03,9.00
2007,01,04,15,04,7.70
2007,01,04,15,05,8.60
2007,01,04,15,06,10.20
2007,01,04,15,07,8.30
2007,01,04,15,08,10.70
2007,01,04,15,09,7.80
2007,01,04,15,10,9.20
2007,01,04,15,11,9.60
2007,01,04,15,12,6.20
2007,01,04,15,13,7.70
2007,01,04,15,14,10.70
2007,01,04,15,15,12.40
2007,01,04,15,16,9.70
2007,01,04,15,17,12.90
2007,01,04,15,18,13.90
2007,01,04,15,19,13.30
2007,01,04,15,20,9.70
2007,01,04,15,21,8.50
2007,01,04,15,22,13.50
2007,01,04,15,23,20.40
2007,01,04,15,24,19.30
2007,01,04,15,25,19.30
2007,01,04,15,26,19.30
2007,01,04,15,27,19.30
2007,01,04,15,28,13.60
2007,01,04,15,29,9.50
2007,01,04,15,30,7.30
2007,01,04,15,31,4.90
2007,01,04,15,32,10.00
2007,01,04,15,33,11.40
2007,01,04,15,34,16.10
2007,01,04,15,35,11.80
2007,01,04,15,36,10.50
2007,01,04,15,37,11.90
2007,01,04,15,38,10.00
2007,01,04,15,39,10.00
2007,01,04,15,40,14.70
2007,01,04,15,41,10.20
2007,01,04,15,42,14.10
2007,01,04,15,43,14.10
2007,01,04,15,44,11.30
2007,01,04,15,45,8.20
2007,01,04,15,46,6.20
2007,01,04,15,47,6.00
2007,01,04,15,48,14.80
2007,01,04,15,49,8.30
2007,01,04,15,50,8.70
2007,01,04,15,51,7.00
2007,01,04,15,52,7.70
2007,01,04,15,53,7.40
2007,01,04,15,54,7.90
2007,01,04,15,55,9.00
2007,01,04,15,56,12.20
2007,01,04,15,57,14.50
2007,01,04,15,58,14.50
2007,01,04,15,59,11.30
2007,01,04,16,00,5.70
2007,01,04,16,01,11.90
2007,01,04,16,02,15.40
2007,01,04,16,03,11.40
2007,01,04,16,04,11.30
2007,01,04,16,05,11.30
2007,01,04,16,06,10.20
2007,01,04,16,07,8.60
2007,01,04,16,08,9.00
2007,01,04,16,09,10.00
2007,01,04,16,10,9.60
2007,01,04,16,11,11.70
2007,01,04,16,12,8.70
2007,01,04,16,13,6.00
2007,01,04,16,14,6.10
2007,01,04,16,15,6.30
2007,01,04,16,16,4.30
2007,01,04,16,17,5.60
2007,01,04,16,18,7.80
2007,01,04,16,19,6.80
2007,01,04,16,20,4.00
2007,01,04,16,21,2.40
2007,01,04,16,22,1.60
2007,01,04,16,23,3.60
2007,01,04,16,24,3.90
2007,01,04,16,25,2.30
2007,01,04,16,26,2.90
2007,01,04,16,27,4.50
2007,01,04,16,28,3.40
2007,01,04,16,29,4.30
2007,01,04,16,30,6.70
2007,01,04,16,31,4.70
2007,01,04,16,32,5.30
2007,01,04,16,33,7.00
2007,01,04,16,34,6.20
2007,01,04,16,35,6.70
2007,01,04,16,36,7.50
2007,01,04,16,37,8.70
2007,01,04,16,38,8.80
2007,01,04,16,39,9.60
2007,01,04,16,40,5.90
2007,01,04,16,41,14.00
2007,01,04,16,42,17.10
2007,01,04,16,43,14.10
2007,01,04,16,44,17.00
2007,01,04,16,45,18.60
2007,01,04,16,46,17.80
2007,01,04,16,47,15.00
2007,01,04,16,48,16.50
2007,01,04,16,49,17.80
2007,01,04,16,50,16.80
2007,01,04,16,51,15.90
2007,01,04,16,52,17.60
2007,01,04,16,53,15.80
2007,01,04,16,54,11.50
2007,01,04,16,55,14.50
2007,01,04,16,56,12.60
2007,01,04,16,57,12.60
2007,01,04,16,58,10.70
2007,01,04,16,59,11.70
2007,01,04,17,00,11.30
2007,01,04,17,01,12.20
2007,01,04,17,02,12.40
2007,01,04,17,03,14.00
2007,01,04,17,04,9.90
2007,01,04,17,05,11.10
2007,01,04,17,06,12.00
2007,01,04,17,07,15.90
2007,01,04,17,08,13.90
2007,01,04,17,09,16.90
2007,01,04,17,10,15.40
2007,01,04,17,11,15.50
2007,01,04,17,12,13.50
2007,01,04,17,13,13.30
2007,01,04,17,14,15.50
2007,01,04,17,15,15.20
2007,01,04,17,16,13.80
2007,01,04,17,17,14.30
2007,01,04,17,18,13.90
2007,01,04,17,19,13.90
2007,01,04,17,20,15.20
2007,01,04,17,21,10.80
2007,01,04,17,22,10.90
2007,01,04,17,23,11.50
2007,01,04,17,24,14.40
2007,01,04,17,25,11.10
2007,01,04,17,26,10.00
2007,01,04,17,27,9.70
2007,01,04,17,28,11.80
2007,01,04,17,29,16.40
2007,01,04,17,30,13.90
2007,01,04,17,31,11.50
2007,01,04,17,32,13.20
2007,01,04,17,33,12.70
2007,01,04,17,34,9.80
2007,01,04,17,35,11.10
2007,01,04,17,36,9.80
2007,01,04,17,37,10.00
2007,01,04,17,38,11.10
2007,01,04,17,39,11.70
2007,01,04,17,40,13.80
2007,01,04,17,41,12.80
2007,01,04,17,42,13.70
2007,01,04,17,43,10.80
2007,01,04,17,44,9.40
2007,01,04,17,45,8.50
2007,01,04,17,46,6.80
2007,01,04,17,47,6.10
2007,01,04,17,48,7.10
2007,01,04,17,49,7.80
2007,01,04,17,50,8.10
2007,01,04,17,51,8.90
2007,01,04,17,52,7.80
2007,01,04,17,53,4.20
2007,01,04,17,54,4.30
2007,01,04,17,55,4.40
2007,01,04,17,56,5.40
2007,01,04,17,57,6.40
2007,01,04,17,58,6.40
2007,01,04,17,59,5.30
2007,01,04,18,00,5.90